カタログに戻る

COSMOS 1019

運用中軍事LEO
NORAD 10936·PAYLOAD·🇷🇺 Russia

打ち上げ Jun 7, 1978 から Plesetsk Cosmodrome

Loading…

次のパス (今後24時間)

TLE

最新Source: Space-Track

元期: Sep 14, 2026, 13:48 UTC

1 10936U 78056G   26257.57547406 -.00000008  00000-0  51851-4 0  9998
2 10936  74.0242 111.5918 0040764 170.2322 218.0847 12.52162606206429

AllMySatでCOSMOS 1019をリアルタイム追跡

Download on the App Store